Wind_Speed
9 9 9 9 9 10 10 10 9 9 9 9 9 9 9 10 11 12 13 14 15 15 16 16 17 18 18 18 18 18 17 16 16 15 14 14 13 12 11 10 8 7 6
10 10 10 10 11 12 12 12 12 11 12 11 11 11 11 11 12 12 13 13 14 15 15 16 16 17 17 18 18 17 17 17 17 16 16 16 15 14 13 11 8 7 5
11 12 12 12 13 13 13 13 14 14 14 14 14 14 13 13 13 13 13 14 14 15 15 16 16 17 17 17 17 17 17 17 17 17 17 16 16 15 14 12 9 7 5
14 15 15 16 16 15 15 15 16 17 17 17 18 17 16 16 15 15 14 14 14 15 15 15 15 16 16 17 17 17 16 16 16 17 17 16 16 15 14 12 9 7 6
18 18 18 18 19 19 19 19 19 20 20 19 20 21 20 19 18 17 16 15 15 15 15 15 15 15 16 16 16 15 15 15 15 15 16 15 14 13 12 10 9 7 6
21 21 21 22 22 23 22 22 22 23 23 22 22 23 23 23 22 20 19 18 17 16 16 15 15 15 15 15 15 14 14 14 14 14 13 13 12 11 10 9 8 8 7
24 25 25 25 25 25 26 26 26 26 26 25 25 25 25 26 26 25 23 21 20 18 17 17 16 15 14 14 13 13 13 13 13 12 12 10 10 10 10 9 8 9 8
26 26 26 26 27 27 27 27 28 28 29 28 28 28 28 27 29 28 27 25 23 21 20 19 17 16 15 14 13 12 12 12 11 11 10 10 9 10 10 10 8 9 9
28 28 28 28 28 28 28 28 29 30 30 31 31 30 30 30 29 30 29 28 26 24 22 21 19 17 16 14 14 13 12 11 11 10 9 9 9 9 9 9 9 9 10
28 28 28 28 28 29 29 29 29 30 31 32 33 33 32 32 32 31 31 30 29 27 26 24 22 20 18 16 14 13 12 11 11 10 9 9 8 9 9 9 8 9 11
26 25 26 25 26 26 27 27 28 29 30 32 33 34 34 32 31 32 32 31 31 30 29 27 25 22 20 18 16 14 13 12 11 10 10 9 9 9 9 8 9 9 11
22 23 23 23 23 23 23 24 25 27 28 30 31 33 34 34 33 31 32 33 32 32 32 30 28 25 23 21 18 16 14 13 12 11 11 10 9 9 9 9 9 10 11
21 21 21 21 22 22 22 22 23 24 25 27 28 29 31 33 33 33 31 31 32 32 32 31 29 27 25 24 21 19 16 15 14 13 12 12 11 10 10 10 10 11 11
20 20 20 20 20 20 20 20 20 21 22 23 25 26 28 30 31 32 33 32 30 31 30 31 30 29 28 26 24 22 20 18 16 14 14 13 12 12 11 11 11 11 12
19 19 19 20 20 20 20 19 19 19 19 20 22 23 25 26 29 30 31 32 31 30 30 31 31 30 29 27 25 24 23 21 19 17 16 15 14 13 12 12 12 12 13
19 18 18 19 19 19 19 18 18 18 18 18 18 19 21 23 25 27 29 30 30 30 30 30 30 31 31 29 28 27 25 24 22 21 19 18 17 15 14 14 14 13 14
19 19 19 19 19 19 18 18 17 16 15 15 15 16 18 19 21 24 26 27 28 29 30 30 30 30 32 32 30 29 29 28 26 24 23 21 19 18 17 16 15 14 15
19 20 19 19 19 18 17 16 15 14 13 13 13 14 15 17 18 20 22 24 26 27 29 30 31 31 31 33 32 30 30 30 29 27 25 24 22 20 19 18 17 16 15
20 20 19 19 18 17 16 16 14 13 12 11 10 11 11 13 15 17 19 21 23 25 26 27 29 30 32 33 33 33 32 31 31 30 28 27 26 23 22 21 19 17 17
19 19 19 19 19 18 17 16 15 13 11 10 9 8 9 11 12 14 16 18 21 23 24 25 27 28 30 33 34 33 32 31 31 32 30 29 28 26 25 23 22 20 19
19 19 20 20 20 19 19 18 16 15 13 11 9 7 8 9 10 12 14 15 17 19 22 24 26 27 29 30 33 34 33 32 32 33 33 31 30 29 28 27 25 24 22
18 19 20 20 21 20 20 19 18 17 15 13 10 8 6 6 7 9 11 12 15 17 19 22 24 27 28 29 31 33 34 35 35 35 35 35 34 32 31 30 28 27 26
17 18 19 20 21 21 21 20 19 18 17 15 13 11 9 7 7 7 8 9 12 15 17 19 22 24 27 29 30 33 34 35 36 37 36 36 36 36 34 33 33 31 30
17 18 19 20 21 21 21 21 20 20 19 17 16 13 11 9 8 7 7 8 9 11 14 17 20 22 24 27 29 31 34 34 35 35 36 36 37 37 36 35 35 35 34
16 17 18 19 20 21 21 21 21 21 20 19 17 16 14 12 10 9 7 7 8 9 11 14 16 19 22 25 27 30 32 34 35 36 37 37 37 38 38 38 37 38 37
15 16 18 19 19 20 20 20 20 20 20 19 19 18 16 15 13 11 10 8 7 8 9 11 14 17 20 23 26 28 30 32 35 36 37 38 38 38 39 39 39 39 40
Wind_Direction
335 332 327 318 312 307 305 301 299 297 295 294 291 286 281 276 271 268 265 260 256 255 254 253 252 252 253 253 254 256 258 259 261 262 266 273 276 280 285 288 293 303 318
325 325 321 316 308 302 296 290 284 281 281 280 279 277 276 274 271 269 266 262 259 256 254 254 254 253 254 254 255 256 257 258 260 261 265 269 271 274 277 277 279 287 298
315 317 313 309 303 299 294 285 279 277 276 272 270 269 268 268 267 266 265 263 259 256 255 255 254 254 255 255 256 256 258 259 260 262 264 267 267 268 269 265 266 271 272
306 306 302 299 297 293 289 283 278 276 274 271 265 264 263 262 262 263 262 263 260 257 256 255 255 254 254 255 258 258 259 259 260 261 264 265 265 264 262 256 253 254 249
300 299 295 291 290 287 283 278 275 273 271 269 265 261 259 259 259 259 259 260 260 258 256 255 254 254 254 255 257 258 257 257 260 261 262 263 261 258 254 248 241 235 229
297 294 291 287 285 282 278 274 271 270 269 267 266 261 258 257 256 256 257 256 255 256 255 254 253 254 254 255 255 254 254 255 257 258 260 259 254 248 243 237 226 220 215
295 293 290 288 284 280 275 271 268 266 265 265 264 263 259 256 254 253 254 254 253 253 253 252 252 252 252 253 253 252 252 252 253 255 255 252 244 235 229 224 219 214 206
296 294 291 288 286 282 277 272 269 265 263 262 261 262 259 257 254 252 250 250 251 250 250 250 251 250 250 251 250 249 249 248 248 250 247 243 234 224 218 213 214 208 200
296 294 292 289 286 283 279 274 270 266 263 260 259 260 259 257 255 251 248 247 247 248 247 247 248 247 247 248 248 246 245 242 241 241 241 232 222 214 209 207 209 204 196
299 297 294 291 288 285 281 276 272 267 264 261 259 258 258 256 254 250 247 246 245 245 245 243 245 244 243 243 243 241 239 235 233 233 232 227 214 209 203 202 202 196 191
304 301 299 297 294 289 284 280 275 270 266 263 260 257 257 256 255 249 247 247 246 244 243 241 240 240 239 239 238 237 236 232 229 227 224 219 213 209 203 201 196 191 190
310 307 306 304 302 298 292 286 281 275 270 266 262 258 256 254 253 250 247 246 246 245 245 242 239 238 238 236 234 233 232 230 227 224 220 214 212 211 208 204 197 193 192
318 315 313 311 309 305 300 294 288 281 274 267 263 259 255 253 251 250 248 246 246 246 245 239 238 236 235 234 231 229 228 228 228 224 220 215 213 211 211 207 201 195 194
326 322 318 314 312 310 306 302 296 288 279 271 264 259 255 251 249 249 247 246 245 245 242 238 238 236 235 232 230 228 226 225 226 224 221 218 216 214 211 210 205 198 197
330 327 323 320 317 314 311 307 301 295 288 278 268 260 256 251 249 248 247 247 245 243 240 238 238 234 233 231 229 228 226 223 225 225 222 220 217 215 212 211 208 203 199
338 335 331 328 325 321 317 312 307 300 291 283 274 265 259 253 249 247 245 244 243 243 242 241 237 235 233 232 231 229 227 225 225 224 223 221 219 218 215 212 211 208 203
345 343 340 336 332 329 325 320 315 308 297 286 278 270 262 255 249 246 244 243 242 242 241 240 238 236 234 231 233 232 229 226 225 225 224 223 222 219 216 214 212 211 209
353 351 347 344 342 340 337 333 327 319 307 296 285 276 266 257 251 247 245 242 239 239 238 238 238 236 234 231 231 233 232 227 225 225 223 222 221 219 217 215 214 214 212
0 359 357 356 354 352 349 347 343 336 326 311 295 284 271 259 254 250 245 241 239 237 237 237 237 235 232 230 230 232 232 230 227 225 222 222 222 220 218 217 216 216 215
9 9 8 6 4 2 360 358 356 353 347 336 318 299 282 268 259 253 249 245 241 238 237 235 235 235 233 233 231 231 233 232 229 226 224 223 222 221 219 218 219 219 219
15 15 15 14 13 12 12 10 8 6 2 353 340 319 301 284 270 260 254 249 243 238 236 234 234 235 234 234 233 232 230 230 229 227 224 223 222 222 221 220 221 221 221
21 21 21 21 21 21 21 20 19 17 13 9 3 352 334 311 287 269 260 252 246 242 239 237 236 235 236 235 232 231 231 230 230 229 227 225 224 222 222 221 222 223 223
25 24 24 25 25 25 25 24 24 22 20 19 16 10 360 343 324 299 278 263 253 247 243 241 238 237 237 238 235 233 231 230 230 231 228 225 225 223 225 225 225 224 224
26 25 25 25 25 25 24 24 24 24 23 22 19 15 10 1 350 330 302 284 270 258 250 245 243 240 238 239 237 235 232 231 230 230 229 227 226 225 225 225 227 226 225
25 24 24 23 23 24 24 23 23 22 22 21 20 19 15 8 1 351 335 310 290 271 259 252 248 243 240 239 238 237 234 233 232 231 230 230 230 229 227 226 226 226 226
23 22 21 21 22 22 22 21 21 21 20 19 19 17 15 12 7 2 355 341 318 293 273 261 254 249 245 242 239 237 236 234 233 230 230 230 230 229 228 228 227 227 228
Height
5894 5893 5892 5892 5891 5890 5889 5889 5888 5888 5887 5887 5887 5887 5887 5887 5887 5887 5887 5887 5887 5887 5887 5887 5888 5888 5888 5888 5888 5889 5889 5889 5890 5890 5890 5890 5889 5889 5888 5888 5887 5887 5886
5893 5891 5891 5890 5889 5888 5888 5887 5886 5886 5885 5885 5885 5885 5885 5885 5885 5885 5885 5885 5885 5885 5885 5885 5885 5886 5886 5886 5886 5887 5887 5887 5888 5888 5888 5888 5888 5887 5887 5886 5886 5886 5886
5891 5890 5889 5888 5888 5886 5885 5885 5884 5884 5883 5883 5883 5882 5882 5882 5882 5882 5883 5883 5883 5883 5883 5883 5883 5884 5884 5884 5884 5884 5885 5885 5886 5886 5886 5886 5885 5885 5885 5885 5885 5885 5885
5889 5888 5887 5886 5885 5884 5883 5882 5881 5881 5880 5880 5880 5880 5879 5879 5880 5880 5880 5880 5881 5881 5881 5881 5881 5881 5882 5882 5882 5882 5883 5883 5883 5883 5883 5883 5883 5883 5883 5883 5884 5884 5885
5887 5885 5884 5883 5881 5880 5879 5879 5878 5877 5876 5876 5876 5876 5876 5876 5876 5877 5877 5878 5878 5878 5879 5879 5879 5879 5879 5880 5880 5880 5880 5881 5881 5881 5881 5881 5881 5881 5881 5882 5883 5883 5884
5883 5882 5880 5879 5877 5876 5875 5874 5873 5873 5872 5871 5871 5871 5872 5872 5872 5873 5873 5874 5875 5876 5876 5876 5877 5877 5877 5877 5877 5878 5878 5879 5879 5879 5879 5879 5879 5879 5880 5881 5881 5882 5883
5879 5877 5875 5873 5872 5870 5869 5868 5868 5867 5867 5866 5866 5866 5866 5867 5868 5868 5869 5870 5871 5872 5873 5874 5874 5875 5875 5875 5875 5876 5876 5877 5877 5877 5877 5877 5877 5878 5878 5879 5880 5881 5882
5874 5871 5869 5867 5866 5864 5863 5862 5861 5861 5860 5860 5860 5860 5861 5861 5862 5863 5864 5866 5867 5868 5869 5870 5871 5872 5873 5873 5873 5874 5874 5875 5875 5875 5875 5875 5876 5876 5877 5878 5879 5880 5881
5868 5866 5863 5861 5859 5858 5856 5855 5854 5854 5853 5853 5853 5854 5854 5855 5856 5857 5858 5860 5862 5864 5865 5867 5868 5869 5870 5871 5871 5872 5872 5873 5873 5873 5874 5874 5874 5875 5876 5877 5878 5879 5880
5862 5859 5857 5854 5852 5850 5849 5847 5846 5846 5845 5845 5846 5846 5847 5848 5849 5850 5852 5854 5856 5859 5861 5862 5864 5866 5867 5868 5869 5870 5870 5871 5871 5872 5872 5873 5873 5874 5875 5876 5877 5878 5879
5857 5854 5851 5848 5846 5844 5842 5840 5839 5838 5838 5838 5838 5839 5840 5841 5842 5844 5846 5848 5850 5853 5855 5857 5859 5861 5863 5865 5866 5867 5868 5869 5869 5870 5871 5872 5872 5873 5874 5875 5876 5878 5879
5852 5849 5846 5843 5840 5838 5835 5833 5832 5831 5830 5830 5830 5831 5832 5833 5835 5837 5839 5842 5844 5846 5849 5852 5854 5857 5859 5861 5863 5864 5866 5867 5868 5869 5869 5870 5871 5872 5873 5875 5876 5877 5878
5848 5845 5841 5838 5835 5832 5830 5827 5825 5824 5823 5822 5822 5823 5824 5826 5828 5830 5832 5835 5837 5840 5842 5845 5848 5851 5854 5857 5859 5861 5863 5864 5866 5867 5868 5869 5870 5871 5872 5874 5875 5876 5878
5844 5841 5838 5834 5831 5828 5825 5822 5820 5817 5816 5815 5815 5815 5816 5818 5820 5822 5825 5827 5830 5833 5836 5839 5842 5846 5849 5852 5855 5857 5859 5861 5863 5864 5866 5867 5868 5870 5871 5873 5874 5875 5877
5841 5838 5834 5830 5827 5823 5820 5817 5815 5812 5810 5809 5808 5809 5810 5811 5813 5815 5817 5820 5823 5826 5830 5833 5837 5840 5843 5847 5850 5853 5855 5858 5860 5862 5863 5865 5867 5868 5870 5871 5873 5874 5876
5839 5835 5831 5827 5823 5820 5816 5813 5810 5807 5805 5803 5803 5803 5804 5805 5806 5808 5810 5813 5816 5820 5823 5827 5830 5834 5838 5841 5844 5848 5851 5854 5856 5858 5860 5862 5864 5866 5868 5869 5871 5873 5875
5837 5832 5828 5824 5820 5816 5813 5809 5806 5803 5801 5799 5798 5798 5799 5799 5801 5802 5804 5807 5810 5813 5817 5820 5823 5827 5831 5835 5838 5842 5845 5848 5851 5854 5857 5859 5861 5863 5865 5867 5869 5871 5873
5835 5830 5826 5822 5818 5814 5810 5806 5803 5800 5797 5796 5795 5794 5794 5795 5796 5797 5799 5801 5804 5807 5810 5813 5817 5821 5825 5829 5832 5835 5839 5843 5846 5849 5852 5855 5858 5860 5863 5865 5867 5869 5871
5833 5829 5825 5821 5816 5812 5808 5804 5801 5797 5795 5793 5791 5791 5791 5791 5792 5793 5794 5796 5798 5801 5804 5807 5811 5814 5818 5822 5826 5829 5833 5836 5840 5843 5846 5850 5853 5856 5859 5862 5864 5866 5868
5833 5829 5825 5820 5816 5812 5807 5803 5800 5796 5794 5791 5789 5788 5788 5788 5788 5789 5790 5792 5793 5796 5798 5801 5805 5808 5811 5815 5819 5822 5826 5829 5833 5837 5841 5844 5848 5851 5855 5858 5860 5863 5866
5833 5830 5825 5821 5816 5811 5807 5803 5799 5796 5793 5790 5788 5787 5786 5785 5786 5786 5787 5788 5789 5791 5793 5796 5799 5802 5805 5808 5812 5816 5819 5823 5826 5831 5835 5839 5842 5846 5849 5853 5856 5859 5862
5834 5830 5826 5822 5817 5812 5808 5804 5800 5796 5793 5790 5788 5786 5785 5784 5783 5783 5783 5784 5785 5787 5789 5791 5793 5795 5798 5801 5805 5809 5812 5817 5820 5824 5828 5832 5836 5840 5843 5847 5851 5854 5857
5835 5831 5827 5823 5818 5814 5809 5805 5801 5798 5794 5791 5788 5786 5784 5782 5781 5781 5780 5781 5782 5783 5784 5786 5788 5790 5792 5795 5798 5802 5806 5809 5813 5817 5821 5825 5829 5833 5837 5840 5844 5848 5852
5836 5832 5828 5824 5820 5815 5811 5807 5803 5799 5795 5792 5789 5786 5784 5782 5780 5779 5778 5778 5778 5779 5780 5781 5783 5784 5787 5789 5792 5795 5799 5802 5806 5810 5814 5817 5822 5826 5830 5833 5837 5841 5845
5837 5834 5830 5826 5821 5817 5813 5809 5804 5800 5797 5793 5790 5787 5784 5782 5780 5778 5777 5776 5776 5776 5776 5777 5778 5779 5781 5783 5785 5788 5791 5795 5798 5803 5806 5810 5814 5818 5822 5826 5830 5834 5838
5838 5835 5831 5827 5823 5819 5814 5810 5806 5802 5798 5795 5791 5788 5785 5782 5779 5777 5776 5774 5773 5773 5773 5773 5773 5774 5775 5777 5779 5781 5784 5787 5790 5794 5799 5802 5806 5810 5814 5818 5822 5826 5830